Regional Weather Roundup
Issued by NWS Goodland, KS

Home | Current Version | Previous Version | Graphics & Text | Print | Product List | Glossary On
Versions: 1 2 3 4 5 6 7 8 9 10 11 12 13 14 15 16 17 18 19 20 21 22 23 24 25 26 27 28 29 30 31 32 33 34 35 36 37 38 39 40 41 42 43 44 45 46 47 48 49 50
000
ASUS43 KGLD 270808
RWRGLD

GOODLAND FORECAST AREA HOURLY WEATHER ROUNDUP
NATIONAL WEATHER SERVICE GOODLAND KS
200 AM MDT SAT AUG 27 2016

...OFFICIAL OBSERVATIONS...

CITY           SKY/WX    TMP DP  RH WIND       PRES   REMARKS
GOODLAND KS    CLEAR     53  52  96 SE9       30.06F
HILL CITY KS   CLOUDY    59  58  96 W3        30.04F
IMPERIAL NEB   CLEAR     52  51  97 CALM      30.08R
MCCOOK NEB     CLEAR     53  51  93 CALM      30.06R
AKRON CO       CLEAR     55  52  89 S8        30.08F
BURLINGTON CO  CLEAR     53  49  86 SE9       30.08F
LIMON CO       CLEAR     43  43 100 N6        30.13F
$$

...UNOFFICIAL OBSERVATIONS...

CITY           SKY/WX    TMP DP  RH WIND       PRES   REMARKS
LENORA KS        N/A     58  32  37 MISG        N/A
SHARON SPRINGS   N/A     57  55  93 CALM        N/A
TRENTON NEB      N/A     53  32  45 MISG        N/A
KIT CARSON CO    N/A     52  47  84 CALM        N/A
YUMA CO          N/A     50  49  95 CALM        N/A
$$




USA.gov is the U.S. government's official web portal to all federal, state and local government web resources and services.